Terminal Aerodrome Forecast
Issued by NWS Rapid City, SD

Home | Current Version | Previous Version | Graphics & Text | Print | Product List | Glossary On
Versions: 1 2 3 4 5 6 7 8 9 10 11 12 13 14 15 16
838
FTUS43 KUNR 082326
TAFRAP
TAF
KRAP 082326Z 0900/0924 34016G26KT P6SM BKN060
     FM090200 34012KT P6SM BKN060=

USA.gov is the U.S. government's official web portal to all federal, state and local government web resources and services.